﻿_id,日時,平均風速(m/s),平均風向,最大瞬間風速(m/s),最大風速時風向,気温(℃),湿度(%),10分間移動積算雨量(mm),1時間移動積算雨量(mm),日雨量(mm),累計雨量(mm),日射(日積算)(MJ/m2),日照(日積算)(min),現地気圧(hPa),海面気圧(hPa)
1,2019-11-11T00:00:00,0.7,西,1.5,西,8.8,88.2,0,0,0,0,12.26,386,999,1013.1
2,2019-11-11T00:01:00,0.7,西,1.5,西,8.7,88.1,0,0,0,0,0,0,999,1013.1
3,2019-11-11T00:02:00,0.7,西,1.5,西,8.5,87.2,0,0,0,0,0,0,999,1013.1
4,2019-11-11T00:03:00,0.7,西,1.5,西,8.5,87.9,0,0,0,0,0,0,999,1013.1
5,2019-11-11T00:04:00,0.7,西,1.5,西,8.6,88.7,0,0,0,0,0,0,999,1013.1
6,2019-11-11T00:05:00,0.6,西,1.5,西,9.1,90.4,0,0,0,0,0,0,999,1013.1
7,2019-11-11T00:06:00,0.6,西,1.5,西,9.1,89.5,0,0,0,0,0,0,999,1013.1
8,2019-11-11T00:07:00,0.5,西南西,1.5,西,9,88.3,0,0,0,0,0,0,999,1013.1
9,2019-11-11T00:08:00,0.4,西南西,1.5,西,8.8,87.4,0,0,0,0,0,0,999,1013.1
10,2019-11-11T00:09:00,0.3,西南西,1.1,西,8.7,87.3,0,0,0,0,0,0,999,1013.1
11,2019-11-11T00:10:00,0.2,静穏,1.1,西,8.8,88.1,0,0,0,0,0,0,999,1013.1
12,2019-11-11T00:11:00,0.2,静穏,1.1,西,9,88.6,0,0,0,0,0,0,999,1013.1
13,2019-11-11T00:12:00,0.1,静穏,0.8,西南西,8.9,88.4,0,0,0,0,0,0,999,1013.1
14,2019-11-11T00:13:00,0.1,静穏,0.8,西南西,8.9,88.2,0,0,0,0,0,0,999,1013.1
15,2019-11-11T00:14:00,0.1,静穏,0.7,西南西,9,88.4,0,0,0,0,0,0,998.9,1013
16,2019-11-11T00:15:00,0.1,静穏,0.5,西南西,9.1,88.5,0,0,0,0,0,0,999,1013.1
17,2019-11-11T00:16:00,0.1,静穏,0.4,北北東,8.8,87.5,0,0,0,0,0,0,999,1013.1
18,2019-11-11T00:17:00,0.1,静穏,0.4,北北東,8.9,87.6,0,0,0,0,0,0,999,1013.1
19,2019-11-11T00:18:00,0.1,静穏,0.9,西,8.8,88.2,0,0,0,0,0,0,998.9,1013
20,2019-11-11T00:19:00,0.2,静穏,1.1,西,8.7,87.5,0,0,0,0,0,0,999,1013.1
21,2019-11-11T00:20:00,0.2,静穏,1.1,西,8.7,87.8,0,0,0,0,0,0,999,1013.1
22,2019-11-11T00:21:00,0.3,北西,1.1,西,8.9,88.6,0,0,0,0,0,0,999,1013.1
23,2019-11-11T00:22:00,0.4,北西,1.2,西北西,8.8,88.4,0,0,0,0,0,0,999,1013.1
24,2019-11-11T00:23:00,0.5,北西,1.2,西北西,8.9,88.4,0,0,0,0,0,0,999,1013.1
25,2019-11-11T00:24:00,0.6,西北西,1.2,西北西,8.9,88,0,0,0,0,0,0,999,1013.1
26,2019-11-11T00:25:00,0.7,西北西,1.2,西北西,9,88.1,0,0,0,0,0,0,999,1013.1
27,2019-11-11T00:26:00,0.7,西北西,1.2,西北西,9.1,88.1,0,0,0,0,0,0,999,1013.1
28,2019-11-11T00:27:00,0.8,西北西,1.2,西北西,9.1,87.4,0,0,0,0,0,0,998.9,1013
29,2019-11-11T00:28:00,0.8,西北西,1.2,西北西,8.8,86.6,0,0,0,0,0,0,999,1013.1
30,2019-11-11T00:29:00,0.8,西北西,1.2,西北西,8.9,86.5,0,0,0,0,0,0,999,1013.1
31,2019-11-11T00:30:00,0.8,西北西,1.2,西北西,9,87.2,0,0,0,0,0,0,998.9,1013
32,2019-11-11T00:31:00,0.8,西北西,1.2,西北西,8.7,86.7,0,0,0,0,0,0,998.9,1013
33,2019-11-11T00:32:00,0.7,西北西,1.2,西北西,8.7,86.8,0,0,0,0,0,0,998.9,1013
34,2019-11-11T00:33:00,0.7,西北西,1.1,西北西,8.5,86.7,0,0,0,0,0,0,998.9,1013
35,2019-11-11T00:34:00,0.6,西北西,1.1,西北西,8.6,87.2,0,0,0,0,0,0,998.8,1012.9
36,2019-11-11T00:35:00,0.5,西北西,0.8,西,8.7,88.1,0,0,0,0,0,0,998.9,1013
37,2019-11-11T00:36:00,0.5,西北西,0.8,西,8.6,87.9,0,0,0,0,0,0,998.8,1012.9
38,2019-11-11T00:37:00,0.5,西北西,0.8,西,8.6,88,0,0,0,0,0,0,998.8,1012.9
39,2019-11-11T00:38:00,0.5,西,0.8,西,8.5,87.9,0,0,0,0,0,0,998.8,1012.9
40,2019-11-11T00:39:00,0.5,西,0.8,西,8.5,88.2,0,0,0,0,0,0,998.8,1012.9
41,2019-11-11T00:40:00,0.5,西北西,0.8,西,8.6,88.3,0,0,0,0,0,0,998.8,1012.9
42,2019-11-11T00:41:00,0.5,西北西,1.2,西,8.6,88.4,0,0,0,0,0,0,998.9,1013
43,2019-11-11T00:42:00,0.4,西北西,1.2,西,8.3,87.6,0,0,0,0,0,0,999,1013.1
44,2019-11-11T00:43:00,0.4,西北西,1.2,西,8.3,88.1,0,0,0,0,0,0,999,1013.1
45,2019-11-11T00:44:00,0.5,西,1.2,西,8.4,88.9,0,0,0,0,0,0,999.1,1013.2
46,2019-11-11T00:45:00,0.6,西,1.2,西,8.4,89.2,0,0,0,0,0,0,999,1013.1
47,2019-11-11T00:46:00,0.6,西,1.2,西,8.4,89.2,0,0,0,0,0,0,999,1013.1
48,2019-11-11T00:47:00,0.6,西,1.2,西,8.5,89.5,0,0,0,0,0,0,999,1013.1
49,2019-11-11T00:48:00,0.7,西,1.2,西,8.6,89.3,0,0,0,0,0,0,999,1013.1
50,2019-11-11T00:49:00,0.7,西,1.2,西,8.6,89.4,0,0,0,0,0,0,998.9,1013
51,2019-11-11T00:50:00,0.8,西,1.2,西,8.7,89.1,0,0,0,0,0,0,998.9,1013
52,2019-11-11T00:51:00,0.8,西,1.2,西,8.7,88.9,0,0,0,0,0,0,998.9,1013
53,2019-11-11T00:52:00,0.8,西,1.2,西,8.7,88.6,0,0,0,0,0,0,998.9,1013
54,2019-11-11T00:53:00,0.8,西,1.2,西,8.7,88.5,0,0,0,0,0,0,998.9,1013
55,2019-11-11T00:54:00,0.8,西,1.2,西,8.6,88.3,0,0,0,0,0,0,998.9,1013
56,2019-11-11T00:55:00,0.8,西北西,1.1,西北西,8.5,88,0,0,0,0,0,0,998.8,1012.9
57,2019-11-11T00:56:00,0.7,西,1.1,西北西,8.4,87.9,0,0,0,0,0,0,998.8,1012.9
58,2019-11-11T00:57:00,0.7,西,1.1,西北西,8.5,88.4,0,0,0,0,0,0,998.9,1013
59,2019-11-11T00:58:00,0.6,西,1,西北西,8.5,88.7,0,0,0,0,0,0,998.9,1013
60,2019-11-11T00:59:00,0.6,西,1,西北西,8.6,89,0,0,0,0,0,0,998.9,1013
61,2019-11-11T01:00:00,0.6,西,1,西北西,8.5,88.7,0,0,0,0,0,0,998.9,1013
62,2019-11-11T01:01:00,0.5,西,0.8,西北西,8.6,89,0,0,0,0,0,0,998.9,1013
63,2019-11-11T01:02:00,0.5,西,1,西,8.7,88.7,0,0,0,0,0,0,998.9,1013
64,2019-11-11T01:03:00,0.6,西,1.1,西,8.5,88.3,0,0,0,0,0,0,999,1013.1
65,2019-11-11T01:04:00,0.6,西,1.7,西,8.5,88.3,0,0,0,0,0,0,999,1013.1
66,2019-11-11T01:05:00,0.8,西,2.3,西,8.5,88.4,0,0,0,0,0,0,999,1013.1
67,2019-11-11T01:06:00,0.9,西,2.3,西,8.1,87.7,0,0,0,0,0,0,999,1013.1
68,2019-11-11T01:07:00,1.1,西,2.3,西,8,87.7,0,0,0,0,0,0,999,1013.2
69,2019-11-11T01:08:00,1.1,西,2.3,西,8.1,88.9,0,0,0,0,0,0,999,1013.1
70,2019-11-11T01:09:00,1.1,西,2.3,西,8,89.5,0,0,0,0,0,0,999,1013.2
71,2019-11-11T01:10:00,1.2,西,2.3,西,8,89.8,0,0,0,0,0,0,999,1013.2
72,2019-11-11T01:11:00,1.2,西,2.3,西,8.2,91,0,0,0,0,0,0,999,1013.1
73,2019-11-11T01:12:00,1.1,西南西,2.3,西,8.3,91.5,0,0,0,0,0,0,998.9,1013
74,2019-11-11T01:13:00,1.1,西南西,2.3,西,8.3,91.3,0,0,0,0,0,0,998.9,1013
75,2019-11-11T01:14:00,1,西南西,2.3,西,8.5,91.3,0,0,0,0,0,0,999,1013.1
76,2019-11-11T01:15:00,0.8,西南西,2.3,西,8.5,91.2,0,0,0,0,0,0,999,1013.1
77,2019-11-11T01:16:00,0.7,西南西,2.2,西,8.4,90.5,0,0,0,0,0,0,999,1013.1
78,2019-11-11T01:17:00,0.6,西南西,1.6,西,8.5,90.2,0,0,0,0,0,0,999,1013.1
79,2019-11-11T01:18:00,0.5,西南西,1.2,西,8.5,90.1,0,0,0,0,0,0,999,1013.1
80,2019-11-11T01:19:00,0.5,南西,1.2,西,8.8,90.7,0,0,0,0,0,0,999,1013.1
81,2019-11-11T01:20:00,0.4,南西,1.2,西,8.7,89.8,0,0,0,0,0,0,999,1013.1
82,2019-11-11T01:21:00,0.4,西南西,1.2,西,8.6,89.1,0,0,0,0,0,0,999,1013.1
83,2019-11-11T01:22:00,0.3,西南西,1.2,西,8.6,88.8,0,0,0,0,0,0,999,1013.1
84,2019-11-11T01:23:00,0.3,西,1.2,西,8.7,88.9,0,0,0,0,0,0,999,1013.1
85,2019-11-11T01:24:00,0.3,西,1.2,西,8.5,88.6,0,0,0,0,0,0,999,1013.1
86,2019-11-11T01:25:00,0.2,静穏,1.2,西,8.6,88.5,0,0,0,0,0,0,999,1013.1
87,2019-11-11T01:26:00,0.2,静穏,1,西南西,8.7,88.9,0,0,0,0,0,0,999,1013.1
88,2019-11-11T01:27:00,0.1,静穏,0.8,南南西,8.9,89,0,0,0,0,0,0,999,1013.1
89,2019-11-11T01:28:00,0.1,静穏,0.8,南南西,8.7,88.2,0,0,0,0,0,0,999,1013.1
90,2019-11-11T01:29:00,0.1,静穏,0.7,南西,8.7,88,0,0,0,0,0,0,999,1013.1
91,2019-11-11T01:30:00,0.1,静穏,0.7,南西,8.7,88.2,0,0,0,0,0,0,999,1013.1
92,2019-11-11T01:31:00,0.1,静穏,0.7,南西,8.5,87.8,0,0,0,0,0,0,998.9,1013
93,2019-11-11T01:32:00,0.1,静穏,0.7,南西,8.5,88,0,0,0,0,0,0,998.9,1013
94,2019-11-11T01:33:00,0.2,静穏,0.7,南西,8.6,88.5,0,0,0,0,0,0,998.9,1013
95,2019-11-11T01:34:00,0.2,静穏,0.7,南西,8.6,88.7,0,0,0,0,0,0,998.9,1013
96,2019-11-11T01:35:00,0.2,静穏,0.7,南西,8.8,89.4,0,0,0,0,0,0,998.9,1013
97,2019-11-11T01:36:00,0.3,南南西,0.7,南西,8.9,89.3,0,0,0,0,0,0,998.9,1013
98,2019-11-11T01:37:00,0.3,南南西,0.7,南西,8.7,88.6,0,0,0,0,0,0,998.9,1013
99,2019-11-11T01:38:00,0.3,南南西,0.7,南西,8.4,87.7,0,0,0,0,0,0,998.8,1012.9
100,2019-11-11T01:39:00,0.2,静穏,0.7,南南西,8.2,87.1,0,0,0,0,0,0,998.8,1012.9
101,2019-11-11T01:40:00,0.2,静穏,0.8,南南西,8.3,88.1,0,0,0,0,0,0,998.8,1012.9
102,2019-11-11T01:41:00,0.3,南南西,0.9,西南西,8.5,89.3,0,0,0,0,0,0,998.8,1012.9
103,2019-11-11T01:42:00,0.4,南南西,1,南西,8.4,90.3,0,0,0,0,0,0,998.8,1012.9
104,2019-11-11T01:43:00,0.4,南南西,1,南西,8.6,89.6,0,0,0,0,0,0,998.9,1013
105,2019-11-11T01:44:00,0.4,南南西,1.3,南南西,8.5,89.5,0,0,0,0,0,0,998.9,1013
106,2019-11-11T01:45:00,0.5,南南西,1.4,南南西,8.3,89,0,0,0,0,0,0,998.9,1013
107,2019-11-11T01:46:00,0.6,南南西,1.4,南南西,8.2,88.7,0,0,0,0,0,0,998.9,1013
108,2019-11-11T01:47:00,0.7,南南西,1.4,南南西,8.2,89.4,0,0,0,0,0,0,998.9,1013
109,2019-11-11T01:48:00,0.7,南西,1.4,南南西,8.6,90.8,0,0,0,0,0,0,998.9,1013
110,2019-11-11T01:49:00,0.7,南西,1.4,南南西,8.6,91,0,0,0,0,0,0,998.8,1012.9
111,2019-11-11T01:50:00,0.8,南西,1.4,南南西,8.4,90.1,0,0,0,0,0,0,998.8,1012.9
112,2019-11-11T01:51:00,0.8,南南西,1.4,南南西,8.3,89.4,0,0,0,0,0,0,998.8,1012.9
113,2019-11-11T01:52:00,0.8,南南西,1.4,南南西,8.2,89.3,0,0,0,0,0,0,998.8,1012.9
114,2019-11-11T01:53:00,0.8,南南西,1.4,南南西,8.2,89.8,0,0,0,0,0,0,998.7,1012.8
115,2019-11-11T01:54:00,0.8,南南西,1.4,南南西,8.1,89.9,0,0,0,0,0,0,998.7,1012.8
116,2019-11-11T01:55:00,0.7,南南西,1.3,南南西,8,90.1,0,0,0,0,0,0,998.6,1012.7
117,2019-11-11T01:56:00,0.7,南南西,1.3,南南西,8,90.4,0,0,0,0,0,0,998.6,1012.7
118,2019-11-11T01:57:00,0.7,南南西,1.3,南南西,8.3,91.1,0,0,0,0,0,0,998.6,1012.7
119,2019-11-11T01:58:00,0.7,南南西,1.3,南南西,8.1,91.2,0,0,0,0,0,0,998.6,1012.7
120,2019-11-11T01:59:00,0.7,南南西,1.5,南南西,8,90.4,0,0,0,0,0,0,998.6,1012.7
121,2019-11-11T02:00:00,0.8,南南西,1.5,南南西,8,90.6,0,0,0,0,0,0,998.6,1012.7
122,2019-11-11T02:01:00,0.8,南南西,1.5,南南西,8.2,91.6,0,0,0,0,0,0,998.6,1012.7
123,2019-11-11T02:02:00,0.9,南南西,1.6,南南西,8.4,91.8,0,0,0,0,0,0,998.6,1012.7
124,2019-11-11T02:03:00,0.9,南南西,1.6,南南西,8.5,92.3,0,0,0,0,0,0,998.5,1012.6
125,2019-11-11T02:04:00,0.9,南南西,1.6,南南西,8.3,91.6,0,0,0,0,0,0,998.5,1012.6
126,2019-11-11T02:05:00,1,南南西,1.6,南南西,8.2,90,0,0,0,0,0,0,998.6,1012.7
127,2019-11-11T02:06:00,1,南南西,1.6,南南西,8.3,91,0,0,0,0,0,0,998.5,1012.6
128,2019-11-11T02:07:00,1,南西,1.6,南南西,8.3,90.3,0,0,0,0,0,0,998.5,1012.6
129,2019-11-11T02:08:00,1,南南西,1.6,南南西,8.3,91.4,0,0,0,0,0,0,998.5,1012.6
130,2019-11-11T02:09:00,1,南南西,1.6,南南西,8.3,90.6,0,0,0,0,0,0,998.5,1012.6
131,2019-11-11T02:10:00,0.9,南南西,1.6,南南西,8.1,90.6,0,0,0,0,0,0,998.4,1012.5
132,2019-11-11T02:11:00,0.9,南南西,1.6,南南西,8.3,91,0,0,0,0,0,0,998.4,1012.5
133,2019-11-11T02:12:00,0.8,南西,1.6,南南西,8.2,91.5,0,0,0,0,0,0,998.4,1012.5
134,2019-11-11T02:13:00,0.7,南西,1.4,南西,8.1,90.7,0,0,0,0,0,0,998.4,1012.5
135,2019-11-11T02:14:00,0.6,南西,1.3,南西,8.2,91,0,0,0,0,0,0,998.3,1012.4
136,2019-11-11T02:15:00,0.5,南西,1.2,南南西,8.2,91.3,0,0,0,0,0,0,998.3,1012.4
137,2019-11-11T02:16:00,0.4,南西,1.1,南南西,8.2,91.5,0,0,0,0,0,0,998.3,1012.4
138,2019-11-11T02:17:00,0.4,南南西,1.1,南南西,8.4,91.3,0,0,0,0,0,0,998.3,1012.4
139,2019-11-11T02:18:00,0.3,南西,0.9,南南西,8.3,91.6,0,0,0,0,0,0,998.3,1012.4
140,2019-11-11T02:19:00,0.2,静穏,0.9,南南西,8.6,91.2,0,0,0,0,0,0,998.3,1012.4
141,2019-11-11T02:20:00,0.2,静穏,0.9,南南西,8.3,90.6,0,0,0,0,0,0,998.3,1012.4
142,2019-11-11T02:21:00,0.2,静穏,0.9,南南西,8.3,89.2,0,0,0,0,0,0,998.3,1012.4
143,2019-11-11T02:22:00,0.2,静穏,0.9,南南西,8.3,89.7,0,0,0,0,0,0,998.2,1012.3
144,2019-11-11T02:23:00,0.2,静穏,0.8,南南西,8.3,89.3,0,0,0,0,0,0,998.2,1012.3
145,2019-11-11T02:24:00,0.2,静穏,0.8,南南西,8.3,89.8,0,0,0,0,0,0,998.2,1012.3
146,2019-11-11T02:25:00,0.2,静穏,0.8,南南西,8,89.1,0,0,0,0,0,0,998.2,1012.3
147,2019-11-11T02:26:00,0.2,静穏,0.8,南南西,7.9,89.3,0,0,0,0,0,0,998.2,1012.3
148,2019-11-11T02:27:00,0.2,静穏,0.7,南西,8.2,90.5,0,0,0,0,0,0,998.2,1012.3
149,2019-11-11T02:28:00,0.2,静穏,0.7,南西,8.3,91.4,0,0,0,0,0,0,998.2,1012.3
150,2019-11-11T02:29:00,0.2,静穏,0.7,南西,8.1,90.8,0,0,0,0,0,0,998.2,1012.3
151,2019-11-11T02:30:00,0.2,静穏,0.7,南西,8.3,90.5,0,0,0,0,0,0,998.1,1012.2
152,2019-11-11T02:31:00,0.2,静穏,0.7,南西,8.3,90.7,0,0,0,0,0,0,998.1,1012.2
153,2019-11-11T02:32:00,0.2,静穏,0.7,南西,8.4,90.8,0,0,0,0,0,0,998.1,1012.2
154,2019-11-11T02:33:00,0.2,静穏,0.7,南西,8.4,90.6,0,0,0,0,0,0,998.1,1012.2
155,2019-11-11T02:34:00,0.2,静穏,0.7,南西,8,89.6,0,0,0,0,0,0,998.1,1012.2
156,2019-11-11T02:35:00,0.2,静穏,0.7,南西,7.9,89,0,0,0,0,0,0,998.1,1012.2
157,2019-11-11T02:36:00,0.2,静穏,0.7,南西,7.7,89,0,0,0,0,0,0,998.1,1012.3
158,2019-11-11T02:37:00,0.3,南西,0.9,西南西,7.8,89.7,0,0,0,0,0,0,998.1,1012.2
159,2019-11-11T02:38:00,0.3,南西,0.9,西南西,8.1,90.9,0,0,0,0,0,0,998.1,1012.2
160,2019-11-11T02:39:00,0.3,南西,0.9,西南西,8,91,0,0,0,0,0,0,998.1,1012.2
161,2019-11-11T02:40:00,0.3,南西,0.9,西南西,7.9,90.8,0,0,0,0,0,0,998.1,1012.2
162,2019-11-11T02:41:00,0.3,南南西,0.9,西南西,8.1,91.7,0,0,0,0,0,0,998.1,1012.2
163,2019-11-11T02:42:00,0.3,南南西,0.9,西南西,8.1,92,0,0,0,0,0,0,998,1012.1
164,2019-11-11T02:43:00,0.3,南南西,0.9,西南西,8,91.1,0,0,0,0,0,0,997.9,1012
165,2019-11-11T02:44:00,0.3,南,0.9,西南西,7.8,90.9,0,0,0,0,0,0,997.9,1012
166,2019-11-11T02:45:00,0.3,南,0.9,西南西,7.8,90.9,0,0,0,0,0,0,997.8,1011.9
167,2019-11-11T02:46:00,0.3,南,0.9,西南西,7.8,91.3,0,0,0,0,0,0,997.8,1011.9
168,2019-11-11T02:47:00,0.3,南南東,0.8,南南西,7.9,92,0,0,0,0,0,0,997.8,1011.9
169,2019-11-11T02:48:00,0.2,静穏,0.8,南南西,7.9,92.2,0,0,0,0,0,0,997.8,1011.9
170,2019-11-11T02:49:00,0.2,静穏,0.8,南南西,7.9,92.3,0,0,0,0,0,0,997.8,1011.9
171,2019-11-11T02:50:00,0.2,静穏,0.8,南南西,7.9,92.2,0,0,0,0,0,0,997.8,1011.9
172,2019-11-11T02:51:00,0.2,静穏,0.8,南南西,7.8,91.7,0,0,0,0,0,0,997.7,1011.8
173,2019-11-11T02:52:00,0.2,静穏,0.8,西,7.5,91.3,0,0,0,0,0,0,997.7,1011.9
174,2019-11-11T02:53:00,0.2,静穏,0.8,西,7.4,90.4,0,0,0,0,0,0,997.7,1011.9
175,2019-11-11T02:54:00,0.3,西南西,1.1,西,7.6,91.2,0,0,0,0,0,0,997.7,1011.9
176,2019-11-11T02:55:00,0.3,西南西,1.1,西,7.7,92,0,0,0,0,0,0,997.7,1011.8
177,2019-11-11T02:56:00,0.4,西南西,1.1,西,7.7,92.3,0,0,0,0,0,0,997.6,1011.7
178,2019-11-11T02:57:00,0.4,西,1.1,西,7.6,92,0,0,0,0,0,0,997.6,1011.8
179,2019-11-11T02:58:00,0.5,西,1.1,西,7.3,90.9,0,0,0,0,0,0,997.6,1011.8
180,2019-11-11T02:59:00,0.5,西,1.1,西,7.4,91,0,0,0,0,0,0,997.6,1011.8
181,2019-11-11T03:00:00,0.5,西,1.1,西,7.5,91.8,0,0,0,0,0,0,997.5,1011.7
182,2019-11-11T03:01:00,0.5,西,1.1,西,7.9,92.8,0,0,0,0,0,0,997.5,1011.6
183,2019-11-11T03:02:00,0.5,西,1.1,西,7.9,93.3,0,0,0,0,0,0,997.5,1011.6
184,2019-11-11T03:03:00,0.5,西,1.1,西,7.8,92.6,0,0,0,0,0,0,997.4,1011.5
185,2019-11-11T03:04:00,0.5,西,1.2,南南西,7.7,91.9,0,0,0,0,0,0,997.4,1011.5
186,2019-11-11T03:05:00,0.4,西南西,1.2,南南西,7.5,91.4,0,0,0,0,0,0,997.4,1011.6
187,2019-11-11T03:06:00,0.4,西南西,1.2,南南西,7.6,91.8,0,0,0,0,0,0,997.4,1011.5
188,2019-11-11T03:07:00,0.4,西南西,1.2,南南西,7.6,92,0,0,0,0,0,0,997.4,1011.5
189,2019-11-11T03:08:00,0.4,南西,1.4,南南西,7.5,91.9,0,0,0,0,0,0,997.2,1011.4
190,2019-11-11T03:09:00,0.5,南西,1.4,南南西,7.4,92.1,0,0,0,0,0,0,997.2,1011.4
191,2019-11-11T03:10:00,0.5,南西,1.4,南南西,7.5,92.6,0,0,0,0,0,0,997.1,1011.2
192,2019-11-11T03:11:00,0.6,南西,1.4,南南西,7.5,92.7,0,0,0,0,0,0,997.1,1011.2
193,2019-11-11T03:12:00,0.6,南南西,1.4,南南西,7.4,92.4,0,0,0,0,0,0,997.1,1011.3
194,2019-11-11T03:13:00,0.7,南南西,1.4,南南西,7.7,92.9,0,0,0,0,0,0,997,1011.1
195,2019-11-11T03:14:00,0.7,南西,1.4,南南西,7.8,94,0,0,0,0,0,0,997,1011.1
196,2019-11-11T03:15:00,0.8,南西,1.6,南南西,7.4,92.3,0,0,0,0,0,0,997,1011.2
197,2019-11-11T03:16:00,0.9,南西,2,南南西,7.5,91.6,0,0,0,0,0,0,997,1011.1
198,2019-11-11T03:17:00,1,南西,2.2,南南西,7.4,92,0,0,0,0,0,0,997,1011.2
199,2019-11-11T03:18:00,1.1,南西,2.4,南南西,7.3,91.8,0,0,0,0,0,0,997,1011.2
200,2019-11-11T03:19:00,1.2,南西,2.4,南南西,7.2,91.9,0,0,0,0,0,0,997.1,1011.3
201,2019-11-11T03:20:00,1.2,南西,2.4,南南西,7.2,92.3,0,0,0,0,0,0,997.1,1011.3
202,2019-11-11T03:21:00,1.2,南西,2.4,南南西,7.2,92.7,0,0,0,0,0,0,997.1,1011.3
203,2019-11-11T03:22:00,1.3,南西,2.4,南南西,7.3,93.3,0,0,0,0,0,0,997.1,1011.3
204,2019-11-11T03:23:00,1.3,南西,2.4,南南西,7.2,93.7,0,0,0,0,0,0,997.1,1011.3
205,2019-11-11T03:24:00,1.4,南西,2.4,南南西,7.3,93.9,0,0,0,0,0,0,997.1,1011.3
206,2019-11-11T03:25:00,1.3,南西,2.4,南南西,7.2,93.7,0,0,0,0,0,0,997.1,1011.3
207,2019-11-11T03:26:00,1.2,南西,2.4,南南西,7.3,93.9,0,0,0,0,0,0,997.1,1011.3
208,2019-11-11T03:27:00,1.1,南西,2.4,南南西,7.2,94.1,0,0,0,0,0,0,997.1,1011.3
209,2019-11-11T03:28:00,1,南西,2.3,南西,7.5,94.7,0,0,0,0,0,0,997.1,1011.2
210,2019-11-11T03:29:00,0.9,南西,2.3,南西,7.4,94.7,0,0,0,0,0,0,997.1,1011.3
211,2019-11-11T03:30:00,0.8,南西,1.7,西南西,7.3,94.5,0,0,0,0,0,0,997.1,1011.3
212,2019-11-11T03:31:00,0.8,南西,1.7,西南西,7.3,94.2,0,0,0,0,0,0,997.1,1011.3
213,2019-11-11T03:32:00,0.8,南西,1.7,南西,7.2,94,0,0,0,0,0,0,997.2,1011.4
214,2019-11-11T03:33:00,0.9,南西,1.7,南西,7.3,94,0,0,0,0,0,0,997.2,1011.4
215,2019-11-11T03:34:00,0.9,南西,1.7,南西,7.1,94.3,0,0,0,0,0,0,997.2,1011.4
216,2019-11-11T03:35:00,0.8,南西,1.7,南西,7.2,94.3,0,0,0,0,0,0,997.2,1011.4
217,2019-11-11T03:36:00,0.9,南西,1.7,南西,7.2,94.3,0,0,0,0,0,0,997.3,1011.5
218,2019-11-11T03:37:00,0.8,南西,1.7,南西,7.3,94.7,0,0,0,0,0,0,997.2,1011.4
219,2019-11-11T03:38:00,0.8,南西,1.7,南西,7.7,95.2,0,0,0,0,0,0,997.2,1011.3
220,2019-11-11T03:39:00,0.9,南西,1.7,南西,7.3,95.2,0,0,0,0,0,0,997.3,1011.5
221,2019-11-11T03:40:00,0.9,南西,1.7,南西,7.4,94.6,0,0,0,0,0,0,997.3,1011.5
222,2019-11-11T03:41:00,0.9,西南西,1.7,南西,7.4,94.7,0,0,0,0,0,0,997.3,1011.5
223,2019-11-11T03:42:00,0.9,西南西,1.6,西南西,7.4,93.9,0,0,0,0,0,0,997.3,1011.5
224,2019-11-11T03:43:00,0.9,西南西,1.7,西,7.3,93.8,0,0,0,0,0,0,997.3,1011.5
225,2019-11-11T03:44:00,0.9,西南西,1.8,西,7.4,93.6,0,0,0,0,0,0,997.3,1011.5
226,2019-11-11T03:45:00,1,西南西,1.8,西,7.4,93.7,0,0,0,0,0,0,997.3,1011.5
227,2019-11-11T03:46:00,1.1,西,1.9,西南西,7.3,93,0,0,0,0,0,0,997.3,1011.5
228,2019-11-11T03:47:00,1.2,西,1.9,西南西,7.5,93.1,0,0,0,0,0,0,997.3,1011.5
229,2019-11-11T03:48:00,1.3,西,1.9,西南西,7.4,93.3,0,0,0,0,0,0,997.3,1011.5
230,2019-11-11T03:49:00,1.2,西,1.9,西南西,7.2,92.2,0,0,0,0,0,0,997.3,1011.5
231,2019-11-11T03:50:00,1.2,西,1.9,西南西,7.3,92.2,0,0,0,0,0,0,997.2,1011.4
232,2019-11-11T03:51:00,1.2,西,1.9,西南西,7.3,92.7,0,0,0,0,0,0,997.2,1011.4
233,2019-11-11T03:52:00,1.1,西,1.9,西南西,7.4,92.7,0,0,0,0,0,0,997.2,1011.4
234,2019-11-11T03:53:00,1.1,西,1.9,西南西,7.2,92.4,0,0,0,0,0,0,997.2,1011.4
235,2019-11-11T03:54:00,1.1,西,1.9,西南西,7.3,92.4,0,0,0,0,0,0,997.2,1011.4
236,2019-11-11T03:55:00,1,西,1.9,西南西,7.3,92.8,0,0,0,0,0,0,997.2,1011.4
237,2019-11-11T03:56:00,0.9,西,1.8,西北西,7.5,93.3,0,0,0,0,0,0,997.2,1011.4
238,2019-11-11T03:57:00,0.8,西,1.8,西北西,7.5,93.4,0,0,0,0,0,0,997.1,1011.2
239,2019-11-11T03:58:00,0.7,西,1.8,西北西,7.3,92.3,0,0,0,0,0,0,997.1,1011.3
240,2019-11-11T03:59:00,0.7,西,1.8,西北西,7.2,91.8,0,0,0,0,0,0,997.1,1011.3
241,2019-11-11T04:00:00,0.6,西,1.7,西北西,7.3,92.2,0,0,0,0,0,0,997.1,1011.3
242,2019-11-11T04:01:00,0.5,西北西,1.3,西,7.3,92.5,0,0,0,0,0,0,997.1,1011.3
243,2019-11-11T04:02:00,0.4,西北西,1.3,西,7,91.6,0,0,0,0,0,0,997.1,1011.3
244,2019-11-11T04:03:00,0.3,西北西,1.2,西,7,91.6,0,0,0,0,0,0,997.1,1011.3
245,2019-11-11T04:04:00,0.3,北西,1,西南西,7,92.2,0,0,0,0,0,0,997.1,1011.3
246,2019-11-11T04:05:00,0.2,静穏,0.8,西北西,7,92.7,0,0,0,0,0,0,997,1011.2
247,2019-11-11T04:06:00,0.2,静穏,0.8,西北西,7.1,93,0,0,0,0,0,0,997,1011.2
248,2019-11-11T04:07:00,0.2,静穏,1,西南西,7.1,93.2,0,0,0,0,0,0,997,1011.2
249,2019-11-11T04:08:00,0.2,静穏,1.3,西,7,92.9,0,0,0,0,0,0,997,1011.2
250,2019-11-11T04:09:00,0.3,北,1.3,西,7.3,93.5,0,0,0,0,0,0,997,1011.2
251,2019-11-11T04:10:00,0.5,北北西,1.5,西,7.4,93.9,0,0,0,0,0,0,997,1011.2
252,2019-11-11T04:11:00,0.6,西,1.5,西,7.4,93.5,0,0,0,0,0,0,997,1011.2
253,2019-11-11T04:12:00,0.7,西,1.5,西,7.5,93.2,0,0,0,0,0,0,997,1011.1
254,2019-11-11T04:13:00,0.8,西,1.7,西,7.3,92.4,0,0,0,0,0,0,997,1011.2
255,2019-11-11T04:14:00,0.8,西,1.7,西,7.3,91.5,0,0,0,0,0,0,997,1011.2
256,2019-11-11T04:15:00,0.9,西,1.7,西,7.3,92.3,0,0,0,0,0,0,997,1011.2
257,2019-11-11T04:16:00,0.9,西,1.7,西,7.1,91.9,0,0,0,0,0,0,997,1011.2
258,2019-11-11T04:17:00,0.9,西,1.7,西,7.1,91.9,0,0,0,0,0,0,997,1011.2
259,2019-11-11T04:18:00,0.9,西,1.7,西,7.3,92.9,0,0,0,0,0,0,997,1011.2
260,2019-11-11T04:19:00,0.8,西,1.7,西,7.3,93.1,0,0,0,0,0,0,997,1011.2
261,2019-11-11T04:20:00,0.7,西,1.7,西,7.7,94.1,0,0,0,0,0,0,997,1011.1
262,2019-11-11T04:21:00,0.6,西南西,1.7,西,7.4,93.5,0,0,0,0,0,0,997,1011.2
263,2019-11-11T04:22:00,0.5,西南西,1.7,西,7.4,92.7,0,0,0,0,0,0,997,1011.2
264,2019-11-11T04:23:00,0.4,西南西,1.2,西南西,7.3,92.6,0,0,0,0,0,0,997,1011.2
265,2019-11-11T04:24:00,0.4,西南西,1.2,西南西,7.2,92.1,0,0,0,0,0,0,997,1011.2
266,2019-11-11T04:25:00,0.4,南南東,1,西南西,7.2,92,0,0,0,0,0,0,997,1011.2
267,2019-11-11T04:26:00,0.4,東,1,西南西,7.3,92.4,0,0,0,0,0,0,997,1011.2
268,2019-11-11T04:27:00,0.4,東北東,0.8,東,7.3,92.5,0,0,0,0,0,0,997,1011.2
269,2019-11-11T04:28:00,0.4,北東,0.8,東,7.3,92.4,0,0,0,0,0,0,997,1011.2
270,2019-11-11T04:29:00,0.4,北東,0.8,東,7.1,91.9,0,0,0,0,0,0,997,1011.2
271,2019-11-11T04:30:00,0.4,北北東,0.8,東,7.4,92.1,0,0,0,0,0,0,997,1011.2
272,2019-11-11T04:31:00,0.4,北北東,0.9,西北西,7.4,92.6,0,0,0,0,0,0,997,1011.2
273,2019-11-11T04:32:00,0.4,北,0.9,西北西,7.4,92.2,0,0,0,0,0,0,997,1011.2
274,2019-11-11T04:33:00,0.4,北北西,0.9,西北西,7.3,91.8,0,0,0,0,0,0,997,1011.2
275,2019-11-11T04:34:00,0.4,北西,0.9,西北西,7.4,91.8,0,0,0,0,0,0,996.9,1011.1
276,2019-11-11T04:35:00,0.4,北西,0.9,西北西,7.4,92.1,0,0,0,0,0,0,997,1011.2
277,2019-11-11T04:36:00,0.4,北西,0.9,西北西,7.5,92.2,0,0,0,0,0,0,996.9,1011
278,2019-11-11T04:37:00,0.4,北西,0.9,西北西,7.7,92.5,0,0,0,0,0,0,997,1011.1
279,2019-11-11T04:38:00,0.4,西北西,1,西北西,7.5,91.9,0,0,0,0,0,0,996.9,1011
280,2019-11-11T04:39:00,0.5,西北西,1.2,西北西,7.4,91,0,0,0,0,0,0,996.9,1011.1
281,2019-11-11T04:40:00,0.6,西北西,1.3,西北西,7.5,90.8,0,0,0,0,0,0,996.9,1011
282,2019-11-11T04:41:00,0.6,西北西,1.3,西北西,7.4,90.6,0,0,0,0,0,0,996.9,1011.1
283,2019-11-11T04:42:00,0.6,西北西,1.3,西北西,7.3,90.4,0,0,0,0,0,0,996.9,1011.1
284,2019-11-11T04:43:00,0.6,西北西,1.3,西北西,7.4,90.6,0,0,0,0,0,0,996.9,1011.1
285,2019-11-11T04:44:00,0.7,西北西,1.3,西北西,7.4,90.7,0,0,0,0,0,0,996.9,1011.1
286,2019-11-11T04:45:00,0.7,西北西,1.3,西北西,7.4,90.6,0,0,0,0,0,0,996.9,1011.1
287,2019-11-11T04:46:00,0.7,西北西,1.3,西北西,7.5,90.5,0,0,0,0,0,0,996.9,1011
288,2019-11-11T04:47:00,0.8,西北西,1.3,西北西,7.5,90.6,0,0,0,0,0,0,996.9,1011
289,2019-11-11T04:48:00,0.8,西北西,1.3,西北西,7.6,90.4,0,0,0,0,0,0,996.9,1011
290,2019-11-11T04:49:00,0.8,西北西,1.3,西北西,7.7,90.2,0,0,0,0,0,0,996.9,1011
291,2019-11-11T04:50:00,0.7,西北西,1.1,西,7.7,89.9,0,0,0,0,0,0,996.9,1011
292,2019-11-11T04:51:00,0.7,西北西,1.1,西,7.6,89.5,0,0,0,0,0,0,996.8,1010.9
293,2019-11-11T04:52:00,0.7,西北西,1.1,西,7.6,89.3,0,0,0,0,0,0,996.8,1010.9
294,2019-11-11T04:53:00,0.7,西北西,1.1,西,7.6,89.6,0,0,0,0,0,0,996.8,1010.9
295,2019-11-11T04:54:00,0.7,西北西,1,西,7.7,89.5,0,0,0,0,0,0,996.8,1010.9
296,2019-11-11T04:55:00,0.7,西北西,1,西南西,7.6,89.4,0,0,0,0,0,0,996.8,1010.9
297,2019-11-11T04:56:00,0.7,西北西,1,西南西,7.6,89.3,0,0,0,0,0,0,996.8,1010.9
298,2019-11-11T04:57:00,0.6,西北西,1,西南西,7.6,89.3,0,0,0,0,0,0,996.7,1010.8
299,2019-11-11T04:58:00,0.6,西北西,1,西南西,7.5,89.4,0,0,0,0,0,0,996.7,1010.8
300,2019-11-11T04:59:00,0.5,西北西,1,西南西,7.6,89.6,0,0,0,0,0,0,996.7,1010.8
301,2019-11-11T05:00:00,0.5,西,1,西南西,7.6,89.8,0,0,0,0,0,0,996.7,1010.8
302,2019-11-11T05:01:00,0.5,西,1,西南西,7.3,89,0,0,0,0,0,0,996.7,1010.9
303,2019-11-11T05:02:00,0.5,西南西,1.1,南南西,7.2,89.1,0,0,0,0,0,0,996.7,1010.9
304,2019-11-11T05:03:00,0.4,西南西,1.1,南南西,7.2,89.8,0,0,0,0,0,0,996.6,1010.8
305,2019-11-11T05:04:00,0.4,南西,1.1,南南西,7.3,90.8,0,0,0,0,0,0,996.7,1010.9
306,2019-11-11T05:05:00,0.4,南西,1.1,南南西,7.5,91.6,0,0,0,0,0,0,996.6,1010.7
307,2019-11-11T05:06:00,0.4,南西,1.1,南南西,7.4,91.4,0,0,0,0,0,0,996.6,1010.7
308,2019-11-11T05:07:00,0.4,南西,1.1,南南西,7.5,91,0,0,0,0,0,0,996.6,1010.7
309,2019-11-11T05:08:00,0.5,南西,1.1,南南西,7.3,91,0,0,0,0,0,0,996.6,1010.8
310,2019-11-11T05:09:00,0.5,南西,1.1,南南西,7.4,90.7,0,0,0,0,0,0,996.5,1010.6
311,2019-11-11T05:10:00,0.5,南西,1.1,南南西,7.6,91.4,0,0,0,0,0,0,996.5,1010.6
312,2019-11-11T05:11:00,0.5,南西,1.1,南南西,7.6,91.5,0,0,0,0,0,0,996.5,1010.6
313,2019-11-11T05:12:00,0.4,西南西,1.1,南南西,7.6,91.3,0,0,0,0,0,0,996.5,1010.6
314,2019-11-11T05:13:00,0.5,西南西,1.1,南南西,7.7,91.4,0,0,0,0,0,0,996.5,1010.6
315,2019-11-11T05:14:00,0.5,西南西,1.1,南南西,7.6,90.9,0,0,0,0,0,0,996.5,1010.6
316,2019-11-11T05:15:00,0.5,西南西,1.1,南南西,7.5,90.4,0,0,0,0,0,0,996.5,1010.6
317,2019-11-11T05:16:00,0.5,西南西,1.1,南南西,7.5,90.3,0,0,0,0,0,0,996.4,1010.5
318,2019-11-11T05:17:00,0.5,西南西,1,南,7.3,90,0,0,0,0,0,0,996.4,1010.5
319,2019-11-11T05:18:00,0.5,西南西,1.5,南南西,7.2,89.7,0,0,0,0,0,0,996.4,1010.6
320,2019-11-11T05:19:00,0.6,西南西,1.6,南西,7.3,90.2,0,0,0,0,0,0,996.4,1010.5
321,2019-11-11T05:20:00,0.6,西南西,1.6,南西,7.5,90.8,0,0,0,0,0,0,996.4,1010.5
322,2019-11-11T05:21:00,0.7,南西,1.6,南西,7.7,91.8,0,0,0,0,0,0,996.4,1010.5
323,2019-11-11T05:22:00,0.8,南西,1.7,南南西,7.6,91.1,0,0,0,0,0,0,996.4,1010.5
324,2019-11-11T05:23:00,0.8,南西,1.7,南南西,7.7,90.6,0,0,0,0,0,0,996.4,1010.5
325,2019-11-11T05:24:00,0.8,南西,1.7,南南西,7.6,90.8,0,0,0,0,0,0,996.4,1010.5
326,2019-11-11T05:25:00,0.8,南西,1.7,南南西,7.7,90.4,0,0,0,0,0,0,996.3,1010.4
327,2019-11-11T05:26:00,0.8,南南西,1.7,南南西,7.9,90.9,0,0,0,0,0,0,996.4,1010.5
328,2019-11-11T05:27:00,0.8,南西,1.7,南南西,7.7,90.3,0,0,0,0,0,0,996.4,1010.5
329,2019-11-11T05:28:00,0.8,南西,1.7,南南西,7.7,89.4,0,0,0,0,0,0,996.4,1010.5
330,2019-11-11T05:29:00,0.8,南西,1.7,南南西,7.8,89.9,0,0,0,0,0,0,996.4,1010.5
331,2019-11-11T05:30:00,0.7,南西,1.7,南南西,7.5,89.4,0,0,0,0,0,0,996.4,1010.5
332,2019-11-11T05:31:00,0.6,南西,1.7,南南西,7.6,89.8,0,0,0,0,0,0,996.3,1010.4
333,2019-11-11T05:32:00,0.6,南南西,1.4,南南西,7.5,90.3,0,0,0,0,0,0,996.3,1010.4
334,2019-11-11T05:33:00,0.6,南南西,1.7,南南西,7.4,90.3,0,0,0,0,0,0,996.3,1010.4
335,2019-11-11T05:34:00,0.6,南南西,1.7,南南西,7.4,90.9,0,0,0,0,0,0,996.3,1010.4
336,2019-11-11T05:35:00,0.7,南南西,1.7,南南西,7.6,91.7,0,0,0,0,0,0,996.3,1010.4
337,2019-11-11T05:36:00,0.8,南南西,1.7,南南西,7.5,92.3,0,0,0,0,0,0,996.3,1010.4